User: anonymous   Login
Location: Dumpton Point
(51.3500°N, 1.4433°E)
Time: 16:00:20
(UTC+00:00)
Language:

Meteor 2-3 Rocket - Orbit

View from above orbital plane
View from above orbital plane
View from above satellite
View from above satellite

Ground track
Ground track

The orbit data is extracted from the following two-line orbital elements,

1 10515U 77117B   21163.88398887 -.00000090  00000-0 -59643-4 0  9999
2 10515  81.2458 303.3546 0031825  89.9943 270.4874 14.08732384234895
Epoch (UTC): 12 June 2021 21:12:56
Eccentricity: 0.0031825
inclination: 81.2458°
perigee height: 840 km
apogee height: 887 km
right ascension of ascending node: 303.3546°
argument of perigee: 89.9943°
revolutions per day: 14.08732384
mean anomaly at epoch: 270.4874°
orbit number at epoch: 23489

The dashed part of the orbit path shows where the satellite is in the earth's shadow,  

DLR